TimeCST,TemperatureF,Dew PointF,Humidity,Sea Level PressureIn,VisibilityMPH,Wind Direction,Wind SpeedMPH,Gust SpeedMPH,PrecipitationIn,Events,Conditions,WindDirDegrees,DateUTC
12:51 AM,33.1,28.0,82,29.99,8.0,South,11.5,-,0.04,Rain,Light Rain,190,2012-12-31 06:51:00
1:51 AM,33.1,30.0,89,29.97,7.0,SSW,6.9,-,0.08,Rain,Light Rain,200,2012-12-31 07:51:00
2:51 AM,34.0,30.9,89,29.96,10.0,South,5.8,-,0.03,Rain,Light Rain,190,2012-12-31 08:51:00
3:19 AM,33.8,30.2,87,29.92,9.0,Variable,4.6,-,0.03,Rain,Light Rain,0,2012-12-31 09:19:00
3:51 AM,34.0,32.0,92,29.94,5.0,Calm,Calm,-,0.05,Rain,Light Rain,0,2012-12-31 09:51:00
4:08 AM,33.8,32.0,93,29.92,7.0,WNW,3.5,-,0.02,Rain,Light Rain,300,2012-12-31 10:08:00
4:15 AM,33.8,32.0,93,29.93,8.0,WNW,4.6,-,0.02,Rain,Light Rain,300,2012-12-31 10:15:00
4:40 AM,33.8,32.0,93,29.94,4.0,NNW,3.5,-,0.03,Rain,Light Rain,330,2012-12-31 10:40:00
5:08 AM,33.8,32.0,93,29.91,2.5,NNE,3.5,-,0.01,Rain,Light Rain,20,2012-12-31 11:08:00
5:25 AM,33.8,32.0,93,29.91,2.5,Calm,Calm,-,0.01,,Overcast,0,2012-12-31 11:25:00
5:41 AM,33.8,32.0,93,29.91,1.0,Calm,Calm,-,0.02,Rain,Light Rain,0,2012-12-31 11:41:00
5:51 AM,33.1,32.0,96,29.93,2.0,Calm,Calm,-,0.02,Rain,Rain,0,2012-12-31 11:51:00
5:57 AM,33.8,32.0,93,29.91,1.8,Calm,Calm,-,0.00,Snow,Light Snow,0,2012-12-31 11:57:00
6:13 AM,33.8,32.0,93,29.91,0.8,Calm,Calm,-,0.00,Snow,Light Snow,0,2012-12-31 12:13:00
6:25 AM,33.8,32.0,93,29.90,2.0,Calm,Calm,-,0.00,Snow,Light Snow,0,2012-12-31 12:25:00
6:48 AM,33.8,30.2,87,29.91,4.0,SSE,4.6,-,0.00,Snow,Light Snow,150,2012-12-31 12:48:00
6:51 AM,33.1,32.0,96,29.93,3.0,SSE,4.6,-,0.00,Snow,Light Snow,150,2012-12-31 12:51:00
7:09 AM,33.8,32.0,93,29.91,5.0,SE,5.8,-,0.00,,Overcast,140,2012-12-31 13:09:00
7:51 AM,33.1,32.0,96,29.93,5.0,South,4.6,-,0.02,,Overcast,170,2012-12-31 13:51:00
8:05 AM,33.8,32.0,93,29.90,6.0,South,3.5,-,0.01,,Overcast,170,2012-12-31 14:05:00
8:19 AM,33.8,32.0,93,29.91,7.0,South,3.5,-,0.01,,Overcast,190,2012-12-31 14:19:00
8:35 AM,33.8,32.0,93,29.92,6.0,West,4.6,-,0.02,,Overcast,270,2012-12-31 14:35:00
8:45 AM,30.2,28.4,93,29.92,4.0,NNW,8.1,18.4,0.03,,Overcast,330,2012-12-31 14:45:00
8:46 AM,30.9,28.9,92,29.95,4.0,NNW,9.2,18.4,0.03,,Overcast,330,2012-12-31 14:46:00
8:53 AM,30.2,28.4,93,29.93,8.0,NW,6.9,-,0.00,,Overcast,320,2012-12-31 14:53:00
9:17 AM,30.2,28.4,93,29.94,6.0,WNW,6.9,-,0.00,,Overcast,300,2012-12-31 15:17:00
9:51 AM,30.0,27.0,88,29.98,10.0,WNW,9.2,-,0.00,,Overcast,300,2012-12-31 15:51:00
9:58 AM,30.2,26.6,86,29.95,10.0,WNW,10.4,-,N/A,,Overcast,290,2012-12-31 15:58:00
10:27 AM,28.4,26.6,93,29.97,2.5,WNW,11.5,-,0.00,Snow,Light Snow,290,2012-12-31 16:27:00
10:30 AM,28.4,26.6,93,29.97,3.0,WNW,9.2,-,0.00,Snow,Light Snow,290,2012-12-31 16:30:00
10:47 AM,28.4,24.8,86,29.97,10.0,NW,10.4,-,0.00,,Overcast,310,2012-12-31 16:47:00
10:51 AM,28.9,25.0,85,30.01,10.0,WNW,10.4,-,0.00,,Overcast,300,2012-12-31 16:51:00
11:01 AM,30.2,24.8,80,29.97,10.0,NW,9.2,-,N/A,,Overcast,310,2012-12-31 17:01:00
11:24 AM,28.4,24.8,86,29.97,10.0,NW,10.4,19.6,N/A,,Overcast,310,2012-12-31 17:24:00
11:49 AM,28.4,24.8,86,29.97,10.0,NW,8.1,19.6,N/A,,Overcast,310,2012-12-31 17:49:00
11:51 AM,28.9,25.0,85,30.01,10.0,NW,9.2,19.6,N/A,,Overcast,310,2012-12-31 17:51:00
12:51 PM,28.9,24.1,82,29.99,10.0,NNW,12.7,17.3,N/A,,Overcast,330,2012-12-31 18:51:00
1:51 PM,28.9,23.0,78,29.99,10.0,NNW,12.7,-,N/A,,Overcast,340,2012-12-31 19:51:00
2:51 PM,28.0,21.9,78,30.00,10.0,NNW,16.1,-,N/A,,Overcast,340,2012-12-31 20:51:00
3:51 PM,27.0,21.0,78,30.02,10.0,NNW,15.0,19.6,N/A,,Overcast,340,2012-12-31 21:51:00
4:22 PM,28.4,21.2,74,29.99,10.0,NNW,9.2,-,N/A,,Overcast,330,2012-12-31 22:22:00
5:51 PM,26.1,19.9,78,30.09,10.0,North,9.2,-,N/A,,Overcast,350,2012-12-31 23:51:00
6:51 PM,26.1,19.9,78,30.11,10.0,North,8.1,-,N/A,,Overcast,360,2013-01-01 00:51:00
7:25 PM,26.6,19.4,74,30.06,10.0,North,11.5,-,N/A,,Overcast,360,2013-01-01 01:25:00
7:51 PM,25.0,19.9,81,30.12,10.0,North,9.2,-,N/A,,Overcast,360,2013-01-01 01:51:00
7:58 PM,24.8,19.4,80,30.07,10.0,North,10.4,-,N/A,,Overcast,10,2013-01-01 01:58:00
8:51 PM,24.1,18.0,77,30.15,10.0,North,9.2,-,N/A,,Partly Cloudy,360,2013-01-01 02:51:00
9:08 PM,24.8,17.6,74,30.09,10.0,North,9.2,-,N/A,,Mostly Cloudy,360,2013-01-01 03:08:00
9:51 PM,24.1,18.0,77,30.17,10.0,North,8.1,-,N/A,,Overcast,10,2013-01-01 03:51:00
10:21 PM,23.0,17.6,80,30.10,10.0,North,6.9,-,N/A,,Mostly Cloudy,350,2013-01-01 04:21:00
10:31 PM,23.0,17.6,80,30.10,10.0,North,8.1,-,N/A,,Scattered Clouds,350,2013-01-01 04:31:00
10:51 PM,21.9,18.0,85,30.18,10.0,North,6.9,-,N/A,,Partly Cloudy,350,2013-01-01 04:51:00
11:51 PM,21.0,17.1,85,30.19,10.0,Calm,Calm,-,N/A,,Clear,0,2013-01-01 05:51:00